Location: Carri�res
(48.9069°N, 2.1792°E)
Time: 12:33:46
(UTC+00:00)

SKYMED 2 - Pass Details

Date: 17 January 2021
Orbit: 621 x 623 km, 97.9° (Epoch: 26 February)

Event Time Altitude Azimuth Distance (km) Brightness Sun altitude
Exits shadow 17:49:42 - 18° (NNE) 2,518 6.4 -13.5°
Reaches altitude 10° 17:50:57 10° 20° (NNE) 2,006 5.8 -13.7°
Maximum altitude 17:55:17 60° 101° (E) 717 3.6 -14.4°
Drops below altitude 10° 17:59:33 10° 182° (S) 1,988 6.4 -15.0°
Sets 18:01:45 0° 186° (S) 2,889 7.3 -15.4°
